COSMOS 2251 DEB

Satellite information

Favourite Embed

Satellite Type and Status

DEBRISIN ORBIT

Key statistics

Satellite COSMOS 2251 DEB at a glance.

Uptime

11772

Days in orbit

Revolutions

≈ 14.4

Per day

Orbit

LEO

Low Earth Orbit

Inclination

74.1

Latest

Satellite identification and parameters

Extended collection of information and parameters for COSMOS 2251 DEB.

Object identification

Identified? True

Debris? True

Object name: COSMOS 2251 DEB

International designator: 1993-036BWZ

Object number (NORAD): 47045

Object ID (CCSDS): 47045

Country: COMMONWEALTH OF INDEPENDENT STATES (CIS)

Current information (Y/N): Y

RCS size: SMALL

Orbital parameters

Period: 100.082 minutes

Inclination: 74.0605 deg

SMA: 7140.523 km

Apoapsis: 782.651 km

Periapsis: 742.125 km

RAAN: 327.3953 deg

Eccentricy: 0.00283781

Argument of periapsis: 134.7811 deg

Mean anomaly: 42.2343 deg

Mean motion: 14.38824193 rev/day

Mean motion (dot): 0.00000341 rev/day2

B* drag term: 0.00011873981 1/REarth

Two-line elements (TLE)

Creation date: Sept. 7, 2025, 3:09 a.m.

Reference frame: TEME

Reference center: EARTH

Epoch: Sept. 6, 2025, 11:16 p.m. UTC

TLE line 0: 0 COSMOS 2251 DEB

TLE line 1: 1 47045U 93036BWZ 25249.96995775 .00000341 00000-0 11874-3 0 9992

TLE line 2: 2 47045 74.0605 327.3953 0028378 134.7811 42.2343 14.38824193 64134

Live tracking on map

Real-time ground track for satellite COSMOS 2251 DEB.

In-orbit conjunctions

A list of the most updated potential collisions computed for object COSMOS 2251 DEB.

Target Orbit TCA Probability of collision Miss distance Type
CZ-4 DEB SSO 2025-03-07 06:05:07 0.0003331964 60.0 (m) DEBRIS
CZ-6A DEB SSO 2024-11-09 09:56:13 0.0001130493 752.0 (m) DEBRIS

Associated space launch

Military communications satellite. Destroyed in a collision with Iridium 33.

COSMOS 2251 DEB was lifted into orbit during the mission ‘Kosmos-3M | Strela-2M 51’, on board a Kosmos-3M space rocket.

The launch took place on June 16, 1993, 4:17 a.m. from 132/1 (132L).

For more information about the launch, click the button.

Launch to space Kosmos-3M | Strela-2M 51
Kosmos-3M | Strela-2M 51

Agency: N/A

Status: Launch Successful

Launch date: June 16, 1993, 4:17 a.m. UTC

Rocket: Kosmos-3M

Launch pad: 132/1 (132L)

Location: Plesetsk Cosmodrome, Russian Federation

...

Latest news about this satellite

There are no fresh news available about this satellite. Check back as we update our databases every day.


Newsletter sign-up

Weekly statistics, charts and insights to help you stay on top of the space industry.